Location: DARK SKY Beskydy - Park tmavé oblohy, www.darkskybeskydy.cz
(49.4926°N, 18.5016°E)
Time: 03:52:07
(UTC+02:00)

A-11 Canister half - Pass Details

Date: 26 February 2024
Orbit: 1513 x 1686 km, 47.2° (Epoch: 24 April)

Event Time Altitude Azimuth Distance (km) Brightness Sun altitude
Rises 01:02:48 0° 218° (SW) 4,928 - -47.4°
Reaches altitude 10° 01:06:09 10° 212° (SSW) 3,943 - -47.1°
Maximum altitude 01:15:32 45° 145° (SE) 2,177 - -46.5°
Exits shadow 01:20:03 29° 96° (E) 2,691 10.3 -46.1°
Drops below altitude 10° 01:24:46 10° 78° (ENE) 3,893 11.4 -45.7°
Sets 01:28:03 0° 72° (ENE) 4,860 12.1 -45.4°
